Skip Page Navigation
NASA JPL Caltech
NASA Logo - Jet Propulsion Laboratory + View the NASA Portal
+ Center for Near-Earth Object Studies
JPL Home Earth Solar System Stars & Galaxies Technology
JPL Solar System Dynamics
BODIES ORBITS EPHEMERIDES TOOLS PHYSICAL DATA DISCOVERY FAQ SITE MAP
JPL Small-Body Database Browser
Search: [ help ]  
86302 (1999 VJ46)
Classification: Inner Main-belt Asteroid          SPK-ID: 2086302
Ephemeris | Orbit Diagram | Orbital Elements | Mission Design | Physical Parameters | Discovery Circumstances | Close-Approach Data ]

[ show orbit diagram ]
Orbital Elements at Epoch 2459000.5 (2020-May-31.0) TDB
Reference: JPL 17 (heliocentric ecliptic J2000)
 Element Value Uncertainty (1-sigma)   Units 
e .07241034103819162 4.9006e-08  
a 1.967983997007585 6.2959e-09 au
q 1.825481604626562 9.4475e-08 au
i 21.41233590140734 5.9927e-06 deg
node 38.12034596242191 1.0159e-05 deg
peri 124.6326763371324 4.2034e-05 deg
M 51.73859021612893 3.7566e-05 deg
tp 2458855.575149594629
(2020-Jan-07.07514959)
0.00010535 TDB
period 1008.395202265664
2.76
4.839e-06
1.325e-08
d
yr
n .3570028885412696 1.7132e-09 deg/d
Q 2.110486389388607 6.7518e-09 au
  Orbit Determination Parameters
   # obs. used (total)      1018  
   data-arc span      8092 days (22.15 yr)  
   first obs. used      1998-04-22  
   last obs. used      2020-06-17  
   planetary ephem.      DE431  
   SB-pert. ephem.      SB431-N16  
   condition code      0  
   norm. resid. RMS      .52043  
   source      ORB  
   producer      Otto Matic  
   solution date      2020-Jun-24 00:21:36  

Additional Information
 Earth MOID = .861736 au 
 Jupiter MOID = 2.89439 au 
 T_jup = 3.786 
[ show covariance matrix ]

Ephemeris | Orbit Diagram | Orbital Elements | Mission Design | Physical Parameters | Discovery Circumstances | Close-Approach Data ]

Physical Parameter Table
Parameter Symbol Value Units Sigma Reference Notes
absolute magnitude H 15.8   n/a MPO280336  

86302 (1999 VJ46)          Discovered 1999-Nov-03 by LINEAR at Socorro
Reference: 20040830/Numbers.arcLast Updated: 2004-09-06

[ show close-approach data ]
Ephemeris | Orbit Diagram | Orbital Elements | Mission Design | Physical Parameters | Discovery Circumstances | Close-Approach Data ]
ABOUT SSD CREDITS/AWARDS PRIVACY/COPYRIGHT GLOSSARY LINKS
FirstGov 2020-Sep-24 18:44 UT
(server date/time)  
NASA Home Page
Site Manager:   Ryan S. Park
Webmaster  Alan B. Chamberlin